HVN659 VHHH-VVTS

Flight info

Callsign HVN659
Flight time N/A
Altitude 37000
Route PECAN V12 EPDOS L642 EPKAL/K0891F430 L642 SOSPA W15 VETOM
Aircraft A359/H-SDE2E3GHIJ3J4J5LM1ORWXY/LB1D1

Departure

Time 2026-04-30 05:08
Airport Hong Kong International Airport (VHHH)

Arrival

Time N/A
Airport Tan Son Nhat International Airport (VVTS)
Time Latitude Longitude Altitude Speed Heading
2026-04-30 04:42 22.31110 113.92742 42 ft 0 kts 295°
2026-04-30 04:59 22.31109 113.92746 43 ft 2 kts 295°
2026-04-30 04:59 22.31102 113.92761 41 ft 2 kts 295°
2026-04-30 04:59 22.31095 113.92777 42 ft 2 kts 295°
2026-04-30 05:00 22.31089 113.92794 39 ft 2 kts 281°
2026-04-30 05:00 22.31088 113.92811 43 ft 2 kts 264°
2026-04-30 05:00 22.31091 113.92828 43 ft 2 kts 248°
2026-04-30 05:00 22.31099 113.92844 41 ft 2 kts 231°
2026-04-30 05:01 22.31110 113.92857 42 ft 2 kts 216°
2026-04-30 05:01 22.31124 113.92865 41 ft 2 kts 206°
2026-04-30 05:01 22.31131 113.92869 42 ft 0 kts 206°
2026-04-30 05:02 22.31130 113.92869 42 ft 1 kts 206°
2026-04-30 05:03 22.31112 113.92859 42 ft 5 kts 207°
2026-04-30 05:03 22.31067 113.92834 43 ft 10 kts 207°
2026-04-30 05:03 22.30994 113.92795 43 ft 14 kts 206°
2026-04-30 05:03 22.30895 113.92744 43 ft 18 kts 206°
2026-04-30 05:04 22.30818 113.92636 43 ft 20 kts 248°
2026-04-30 05:04 22.30768 113.92483 43 ft 23 kts 251°
2026-04-30 05:04 22.30713 113.92307 43 ft 26 kts 251°
2026-04-30 05:04 22.30649 113.92110 43 ft 29 kts 250°
2026-04-30 05:05 22.30579 113.91897 33 ft 32 kts 251°
2026-04-30 05:05 22.30504 113.91668 43 ft 30 kts 250°
2026-04-30 05:05 22.30434 113.91452 43 ft 31 kts 250°
2026-04-30 05:06 22.30288 113.91000 43 ft 32 kts 250°
2026-04-30 05:06 22.30213 113.90766 43 ft 34 kts 251°
2026-04-30 05:06 22.30132 113.90514 43 ft 37 kts 250°
2026-04-30 05:06 22.30057 113.90276 43 ft 17 kts 251°
2026-04-30 05:07 22.29981 113.90199 43 ft 16 kts 177°
2026-04-30 05:07 22.29863 113.90242 41 ft 20 kts 157°
2026-04-30 05:07 22.29802 113.90357 40 ft 20 kts 72°
2026-04-30 05:07 22.29865 113.90556 41 ft 47 kts 71°
2026-04-30 05:08 22.30053 113.91135 44 ft 122 kts 71°
2026-04-30 05:08 22.30396 113.92244 132 ft 182 kts 71°
2026-04-30 05:08 22.30883 113.93646 411 ft 215 kts 65°
2026-04-30 05:08 22.31519 113.95209 775 ft 236 kts 62°
2026-04-30 05:09 22.32010 113.96931 1406 ft 245 kts 72°
2026-04-30 05:09 22.32512 113.98686 2428 ft 243 kts 69°
2026-04-30 05:09 22.33032 114.00355 3763 ft 234 kts 69°
2026-04-30 05:09 22.33554 114.02036 4763 ft 240 kts 72°
2026-04-30 05:10 22.33810 114.03841 5671 ft 247 kts 91°
2026-04-30 05:10 22.33450 114.05647 6705 ft 248 kts 115°
2026-04-30 05:10 22.32485 114.07173 7730 ft 247 kts 139°
2026-04-30 05:10 22.31070 114.08252 8595 ft 255 kts 159°
2026-04-30 05:11 22.29350 114.08775 9452 ft 260 kts 178°
2026-04-30 05:11 22.27524 114.08831 10295 ft 270 kts 185°
2026-04-30 05:11 22.25577 114.08774 10737 ft 297 kts 186°
2026-04-30 05:11 22.23420 114.08710 11160 ft 323 kts 185°
2026-04-30 05:12 22.21103 114.08663 11674 ft 342 kts 185°
2026-04-30 05:12 22.18684 114.08722 12404 ft 355 kts 176°
2026-04-30 05:12 22.16297 114.09571 13203 ft 372 kts 154°
2026-04-30 05:12 22.14299 114.11406 13990 ft 386 kts 131°
2026-04-30 05:13 22.12950 114.13942 14740 ft 395 kts 116°
2026-04-30 05:13 22.11856 114.16676 15500 ft 400 kts 115°
2026-04-30 05:13 22.10718 114.19428 16250 ft 404 kts 116°
2026-04-30 05:13 22.09526 114.22147 16990 ft 409 kts 118°
2026-04-30 05:14 22.08214 114.24880 17719 ft 412 kts 124°
2026-04-30 05:14 22.06366 114.27216 18452 ft 410 kts 142°
2026-04-30 05:14 22.04121 114.29118 19108 ft 411 kts 147°
2026-04-30 05:14 22.01717 114.30795 19791 ft 411 kts 156°
2026-04-30 05:15 21.99069 114.31913 20474 ft 409 kts 169°
2026-04-30 05:15 21.96266 114.32318 21156 ft 406 kts 183°
2026-04-30 05:15 21.93476 114.31985 21834 ft 403 kts 197°
2026-04-30 05:15 21.90856 114.30949 22498 ft 402 kts 210°
2026-04-30 05:16 21.88541 114.29338 23144 ft 403 kts 219°
2026-04-30 05:16 21.86331 114.27465 23759 ft 406 kts 221°
2026-04-30 05:16 21.84120 114.25544 24300 ft 411 kts 221°
2026-04-30 05:16 21.81881 114.23609 24885 ft 414 kts 221°
2026-04-30 05:17 21.79620 114.21667 25444 ft 418 kts 221°
2026-04-30 05:17 21.77333 114.19712 26038 ft 422 kts 221°
2026-04-30 05:17 21.75025 114.17745 26637 ft 425 kts 221°
2026-04-30 05:17 21.72697 114.15763 27251 ft 429 kts 221°
2026-04-30 05:18 21.70349 114.13768 27858 ft 433 kts 221°
2026-04-30 05:18 21.67974 114.11755 28432 ft 437 kts 220°
2026-04-30 05:18 21.65490 114.09916 28995 ft 443 kts 213°
2026-04-30 05:18 21.62685 114.08481 29538 ft 451 kts 203°
2026-04-30 05:19 21.59649 114.07519 30098 ft 458 kts 198°
2026-04-30 05:19 21.56541 114.06712 30547 ft 462 kts 197°
2026-04-30 05:19 21.53402 114.05918 31012 ft 465 kts 197°
2026-04-30 05:19 21.50242 114.05114 31464 ft 468 kts 197°
2026-04-30 05:20 21.47066 114.04301 31928 ft 471 kts 197°
2026-04-30 05:20 21.44946 114.03794 32220 ft 474 kts 195°
2026-04-30 05:20 21.41656 114.03313 32661 ft 479 kts 190°
2026-04-30 05:20 21.37230 114.02927 33204 ft 484 kts 188°
2026-04-30 05:21 21.33856 114.02709 33590 ft 488 kts 187°
2026-04-30 05:21 21.30456 114.02512 33958 ft 490 kts 187°
2026-04-30 05:21 21.27038 114.02315 34276 ft 493 kts 187°
2026-04-30 05:22 21.23262 114.02089 34680 ft 493 kts 187°
2026-04-30 05:23 21.19882 114.01878 35113 ft 492 kts 188°
2026-04-30 05:23 21.16469 114.01658 35550 ft 491 kts 188°
2026-04-30 05:23 21.13059 114.01433 35969 ft 490 kts 188°
2026-04-30 05:23 21.09655 114.01206 36390 ft 490 kts 188°
2026-04-30 05:24 21.06256 114.00978 36805 ft 490 kts 188°
2026-04-30 05:24 21.02844 114.00748 37002 ft 494 kts 188°
2026-04-30 05:24 20.97074 114.00357 37026 ft 504 kts 188°
2026-04-30 05:25 20.89020 113.99040 37021 ft 505 kts 195°
2026-04-30 05:25 20.83308 113.97749 37021 ft 505 kts 196°
2026-04-30 05:26 20.76442 113.96127 37017 ft 505 kts 197°
2026-04-30 05:26 20.69576 113.94509 37018 ft 506 kts 196°
2026-04-30 05:27 20.61582 113.92644 37015 ft 506 kts 196°
2026-04-30 05:27 20.54702 113.91046 37012 ft 506 kts 196°
2026-04-30 05:28 20.48979 113.89719 37015 ft 507 kts 196°
2026-04-30 05:28 20.42087 113.88122 37011 ft 507 kts 196°
2026-04-30 05:29 20.35193 113.86526 37012 ft 507 kts 196°
2026-04-30 05:29 20.27178 113.84671 37011 ft 507 kts 197°
2026-04-30 05:30 20.21441 113.83344 37008 ft 508 kts 197°
2026-04-30 05:30 20.14530 113.81748 37009 ft 508 kts 197°
2026-04-30 05:31 20.07615 113.80152 37007 ft 509 kts 197°
2026-04-30 05:31 20.00694 113.78556 36999 ft 509 kts 197°
2026-04-30 05:32 19.93770 113.76961 37013 ft 510 kts 197°
2026-04-30 05:32 19.86882 113.75376 37001 ft 510 kts 197°
2026-04-30 05:33 19.79942 113.73780 37007 ft 510 kts 197°
2026-04-30 05:33 19.73000 113.72186 37000 ft 511 kts 197°
2026-04-30 05:34 19.66052 113.70591 37004 ft 511 kts 197°
2026-04-30 05:34 19.59145 113.69007 37000 ft 511 kts 197°
2026-04-30 05:35 19.52190 113.67413 37002 ft 511 kts 197°
2026-04-30 05:35 19.45238 113.65822 37000 ft 511 kts 197°
2026-04-30 05:36 19.38279 113.64231 36997 ft 512 kts 197°
2026-04-30 05:36 19.31364 113.62651 36995 ft 512 kts 197°
2026-04-30 05:37 19.24405 113.61062 36992 ft 512 kts 197°
2026-04-30 05:37 19.17450 113.59476 36989 ft 511 kts 197°
2026-04-30 05:38 19.10492 113.57890 36991 ft 511 kts 196°
2026-04-30 05:38 19.03583 113.56317 36988 ft 511 kts 196°
2026-04-30 05:39 18.96589 113.54888 36986 ft 513 kts 193°
2026-04-30 05:39 18.89503 113.53877 36986 ft 514 kts 191°
2026-04-30 05:40 18.82406 113.52942 36983 ft 514 kts 191°
2026-04-30 05:40 18.75323 113.51970 36981 ft 513 kts 192°
2026-04-30 05:41 18.68291 113.50973 36979 ft 513 kts 192°
2026-04-30 05:41 18.61225 113.49944 36983 ft 512 kts 194°
2026-04-30 05:42 18.54511 113.47752 36978 ft 502 kts 210°
2026-04-30 05:42 18.48644 113.43873 36975 ft 497 kts 218°
2026-04-30 05:43 18.43111 113.39608 36980 ft 496 kts 220°
2026-04-30 05:43 18.37578 113.35261 36977 ft 496 kts 220°
2026-04-30 05:44 18.32025 113.30942 36976 ft 497 kts 219°
2026-04-30 05:44 18.26446 113.26642 36978 ft 497 kts 219°
2026-04-30 05:45 18.20894 113.22376 36976 ft 498 kts 219°
2026-04-30 05:45 18.15302 113.18083 36973 ft 498 kts 219°
2026-04-30 05:46 18.09705 113.13788 36975 ft 498 kts 219°
2026-04-30 05:46 18.04103 113.09492 36971 ft 499 kts 219°
2026-04-30 05:47 17.98533 113.05224 36973 ft 499 kts 219°
2026-04-30 05:47 17.92918 113.00925 36972 ft 500 kts 219°
2026-04-30 05:48 17.87294 112.96622 36968 ft 500 kts 219°
2026-04-30 05:48 17.81634 112.92355 36969 ft 502 kts 218°
2026-04-30 05:49 17.80644 112.91619 36969 ft 502 kts 218°
2026-04-30 05:49 17.74933 112.87394 36971 ft 503 kts 218°
2026-04-30 05:50 17.69217 112.83168 36973 ft 503 kts 218°
2026-04-30 05:50 17.63500 112.78936 36974 ft 503 kts 218°
2026-04-30 05:51 17.57785 112.74705 36967 ft 503 kts 218°
2026-04-30 05:51 17.52105 112.70502 36968 ft 503 kts 218°
2026-04-30 05:52 17.46382 112.66271 36967 ft 504 kts 218°
2026-04-30 05:52 17.40655 112.62040 36965 ft 504 kts 218°
2026-04-30 05:53 17.34923 112.57809 36966 ft 504 kts 218°
2026-04-30 05:53 17.29224 112.53606 36967 ft 505 kts 218°
2026-04-30 05:54 17.23482 112.49374 36966 ft 505 kts 217°
2026-04-30 05:54 17.17740 112.45146 36967 ft 505 kts 217°
2026-04-30 05:55 17.11992 112.40916 36967 ft 505 kts 217°
2026-04-30 05:55 17.06281 112.36717 36969 ft 505 kts 217°
2026-04-30 05:56 17.00528 112.32490 36965 ft 506 kts 217°
2026-04-30 05:56 16.94771 112.28264 36963 ft 506 kts 217°
2026-04-30 05:57 16.89013 112.24040 36963 ft 506 kts 217°
2026-04-30 05:57 16.83296 112.19850 36964 ft 506 kts 217°
2026-04-30 05:58 16.77534 112.15630 36965 ft 506 kts 217°
2026-04-30 05:58 16.71772 112.11412 36965 ft 506 kts 217°
2026-04-30 05:59 16.66007 112.07196 36957 ft 507 kts 217°
2026-04-30 05:59 16.60271 112.03004 36969 ft 507 kts 217°
2026-04-30 06:00 16.54493 111.98784 36959 ft 507 kts 217°
2026-04-30 06:00 16.48710 111.94564 36958 ft 507 kts 217°
2026-04-30 06:01 16.42927 111.90348 36966 ft 508 kts 217°
2026-04-30 06:01 16.37178 111.86158 36963 ft 508 kts 217°
2026-04-30 06:02 16.31386 111.81941 36961 ft 508 kts 217°
2026-04-30 06:02 16.25595 111.77728 36959 ft 508 kts 217°
2026-04-30 06:03 16.19798 111.73513 36956 ft 509 kts 217°
2026-04-30 06:03 16.13992 111.69294 36956 ft 509 kts 217°
2026-04-30 06:04 16.08221 111.65105 36957 ft 509 kts 217°
2026-04-30 06:05 15.99497 111.58777 36951 ft 510 kts 217°
2026-04-30 06:05 15.93673 111.54557 36958 ft 510 kts 217°
2026-04-30 06:06 15.87849 111.50339 36954 ft 511 kts 217°
2026-04-30 06:06 15.82056 111.46148 36947 ft 511 kts 217°
2026-04-30 06:07 15.76222 111.41929 36947 ft 511 kts 217°
2026-04-30 06:07 15.70384 111.37710 36947 ft 511 kts 217°
2026-04-30 06:08 15.64541 111.33491 36945 ft 512 kts 217°
2026-04-30 06:08 15.58732 111.29299 36946 ft 512 kts 217°
2026-04-30 06:09 15.52878 111.25078 36947 ft 513 kts 217°
2026-04-30 06:09 15.47020 111.20857 36946 ft 513 kts 217°
2026-04-30 06:10 15.41159 111.16637 36947 ft 513 kts 217°
2026-04-30 06:10 15.35292 111.12415 36945 ft 513 kts 217°
2026-04-30 06:11 15.29459 111.08221 36943 ft 514 kts 217°
2026-04-30 06:11 15.23586 111.04001 36943 ft 514 kts 217°
2026-04-30 06:12 15.17709 110.99781 36942 ft 514 kts 217°
2026-04-30 06:12 15.11825 110.95559 36944 ft 515 kts 217°
2026-04-30 06:13 15.06496 110.91738 36945 ft 515 kts 217°
2026-04-30 06:13 15.02643 110.88977 36940 ft 516 kts 217°
2026-04-30 06:14 14.98168 110.85771 36943 ft 516 kts 217°
2026-04-30 06:14 14.92263 110.81543 36943 ft 516 kts 217°
2026-04-30 06:15 14.86353 110.77315 36942 ft 517 kts 217°
2026-04-30 06:15 14.80476 110.73113 36940 ft 517 kts 217°
2026-04-30 06:16 14.74550 110.68880 36939 ft 518 kts 217°
2026-04-30 06:16 14.68622 110.64647 36941 ft 518 kts 217°
2026-04-30 06:17 14.62688 110.60413 36939 ft 519 kts 217°
2026-04-30 06:17 14.56744 110.56175 36939 ft 519 kts 217°
2026-04-30 06:18 14.50836 110.51965 36938 ft 520 kts 217°
2026-04-30 06:18 14.44881 110.47725 36936 ft 520 kts 217°
2026-04-30 06:19 14.38922 110.43484 36938 ft 521 kts 217°
2026-04-30 06:19 14.32953 110.39238 36938 ft 521 kts 217°
2026-04-30 06:20 14.26981 110.34994 36941 ft 522 kts 217°
2026-04-30 06:20 14.21037 110.30773 36936 ft 522 kts 217°
2026-04-30 06:21 14.15052 110.26525 36935 ft 522 kts 216°
2026-04-30 06:21 14.09069 110.22281 36935 ft 522 kts 216°
2026-04-30 06:22 14.03086 110.18040 36936 ft 522 kts 216°
2026-04-30 06:22 13.97143 110.13830 36934 ft 522 kts 216°
2026-04-30 06:23 13.91166 110.09599 36936 ft 521 kts 216°
2026-04-30 06:23 13.85189 110.05371 36937 ft 521 kts 216°
2026-04-30 06:24 13.79217 110.01148 36933 ft 521 kts 216°
2026-04-30 06:24 13.73283 109.96956 36936 ft 521 kts 216°
2026-04-30 06:25 13.67314 109.92741 36937 ft 520 kts 216°
2026-04-30 06:25 13.61347 109.88530 36933 ft 520 kts 216°
2026-04-30 06:26 13.55388 109.84328 36933 ft 519 kts 216°
2026-04-30 06:26 13.49476 109.80161 36931 ft 518 kts 216°
2026-04-30 06:27 13.43529 109.75972 36935 ft 518 kts 216°
2026-04-30 06:27 13.37591 109.71792 36937 ft 517 kts 216°
2026-04-30 06:28 13.31662 109.67619 36938 ft 516 kts 216°
2026-04-30 06:28 13.25778 109.63484 36938 ft 516 kts 216°
2026-04-30 06:29 13.19864 109.59326 36940 ft 515 kts 216°
2026-04-30 06:29 13.13951 109.55176 36940 ft 515 kts 216°
2026-04-30 06:30 13.08040 109.51029 36948 ft 515 kts 216°
2026-04-30 06:30 13.02128 109.46881 36947 ft 515 kts 216°
2026-04-30 06:31 12.96255 109.42764 36947 ft 515 kts 216°
2026-04-30 06:31 12.90344 109.38622 36951 ft 515 kts 216°
2026-04-30 06:32 12.84428 109.34480 36949 ft 515 kts 216°
2026-04-30 06:32 12.78515 109.30344 36954 ft 515 kts 216°
2026-04-30 06:33 12.72642 109.26235 36950 ft 515 kts 215°
2026-04-30 06:33 12.66726 109.22099 36949 ft 515 kts 215°
2026-04-30 06:34 12.60811 109.17968 36953 ft 515 kts 215°
2026-04-30 06:34 12.54891 109.13835 36956 ft 515 kts 215°
2026-04-30 06:35 12.49008 109.09728 36954 ft 515 kts 215°
2026-04-30 06:35 12.43082 109.05592 36957 ft 516 kts 215°
2026-04-30 06:36 12.37177 109.01477 36965 ft 516 kts 215°
2026-04-30 06:36 12.31235 108.97337 36969 ft 517 kts 215°
2026-04-30 06:37 12.25329 108.93226 36964 ft 517 kts 215°
2026-04-30 06:37 12.19382 108.89088 36970 ft 517 kts 215°
2026-04-30 06:38 12.13434 108.84951 36973 ft 517 kts 215°
2026-04-30 06:38 12.07479 108.80812 36974 ft 518 kts 215°
2026-04-30 06:39 12.01566 108.76704 36974 ft 517 kts 215°
2026-04-30 06:39 11.95611 108.72569 36974 ft 518 kts 215°
2026-04-30 06:40 11.89672 108.68410 36969 ft 517 kts 218°
2026-04-30 06:40 11.84587 108.63281 36969 ft 514 kts 234°
2026-04-30 06:41 11.81351 108.56833 36970 ft 511 kts 252°
2026-04-30 06:41 11.79282 108.49897 36962 ft 510 kts 255°
2026-04-30 06:42 11.77476 108.42951 36938 ft 510 kts 257°
2026-04-30 06:42 11.75801 108.35941 37023 ft 508 kts 257°
2026-04-30 06:43 11.74137 108.28925 37022 ft 509 kts 257°
2026-04-30 06:43 11.72483 108.21947 37019 ft 509 kts 257°
2026-04-30 06:44 11.70547 108.15000 37011 ft 511 kts 249°
2026-04-30 06:44 11.67039 108.08699 37009 ft 514 kts 232°
2026-04-30 06:45 11.62350 108.03181 37016 ft 515 kts 230°
2026-04-30 06:45 11.57475 107.97829 37027 ft 515 kts 227°
2026-04-30 06:46 11.52511 107.92623 37027 ft 515 kts 227°
2026-04-30 06:46 11.47534 107.87385 36658 ft 506 kts 227°
2026-04-30 06:46 11.45111 107.84826 36325 ft 498 kts 227°
2026-04-30 06:47 11.42715 107.82279 35673 ft 497 kts 227°
2026-04-30 06:47 11.40342 107.79719 34997 ft 497 kts 228°
2026-04-30 06:47 11.37977 107.77142 34293 ft 499 kts 228°
2026-04-30 06:47 11.35644 107.74533 33550 ft 498 kts 229°
2026-04-30 06:48 11.33373 107.71937 32792 ft 496 kts 229°
2026-04-30 06:48 11.31067 107.69335 32052 ft 494 kts 229°
2026-04-30 06:48 11.28746 107.66753 31237 ft 494 kts 228°
2026-04-30 06:48 11.26422 107.64190 30532 ft 491 kts 227°
2026-04-30 06:49 11.24105 107.61649 29911 ft 487 kts 227°
2026-04-30 06:49 11.21748 107.59189 29173 ft 483 kts 225°
2026-04-30 06:49 11.19362 107.56801 28445 ft 479 kts 225°
2026-04-30 06:49 11.16984 107.54439 27754 ft 475 kts 224°
2026-04-30 06:50 11.14635 107.52104 27257 ft 467 kts 224°
2026-04-30 06:50 11.12370 107.49852 26980 ft 455 kts 225°
2026-04-30 06:50 11.10139 107.47632 26727 ft 443 kts 224°
2026-04-30 06:50 11.07964 107.45468 26489 ft 431 kts 225°
2026-04-30 06:51 11.05848 107.43361 26279 ft 420 kts 225°
2026-04-30 06:51 11.03886 107.41195 25772 ft 416 kts 231°
2026-04-30 06:51 11.02279 107.38731 25065 ft 419 kts 242°
2026-04-30 06:51 11.01213 107.36008 24784 ft 410 kts 253°
2026-04-30 06:52 11.00515 107.33236 24591 ft 399 kts 256°
2026-04-30 06:52 11.00183 107.31759 24485 ft 394 kts 256°
2026-04-30 06:52 10.99596 107.29072 24296 ft 383 kts 257°
2026-04-30 06:52 10.99038 107.26488 23892 ft 379 kts 257°
2026-04-30 06:53 10.98507 107.23805 22577 ft 397 kts 259°
2026-04-30 06:53 10.98072 107.20915 20457 ft 430 kts 259°
2026-04-30 06:53 10.97376 107.17809 17946 ft 477 kts 253°
2026-04-30 06:53 10.97235 107.17328 17749 ft 0 kts 252°